Location: Bathurst
(33.4193°S, 149.5775°E)
Time: 20:12:25
(UTC+10:00)

Tiros 1 despin weight - All Passes

Search period start: 13 June 2021 00:00
Search period end: 23 June 2021 00:00
Orbit: 593 x 641 km, 48.2° (Epoch: 12 June)

Date Brightness Start Highest point End Pass type
(mag) Time Alt. Az. Time Alt. Az. Time Alt. Az.
13 Jun - 00:27:16 10° SSW 00:30:04 15° SSE 00:32:49 10° SE night (unlit)
13 Jun - 02:08:10 10° SW 02:12:35 42° SSE 02:16:54 10° ENE night (unlit)
13 Jun - 03:49:58 10° WSW 03:54:01 31° NW 03:58:00 10° NNE visible
13 Jun - 17:54:55 10° NNE 17:57:38 15° NE 18:00:22 10° E visible
13 Jun - 19:34:00 10° NW 19:38:43 80° SW 19:43:28 10° SE visible
13 Jun - 21:17:15 10° WSW 21:20:51 21° SSW 21:24:26 10° SSE night (unlit)
13 Jun - 23:01:41 10° SSW 23:03:50 13° S 23:06:00 10° SSE night (unlit)
14 Jun - 00:43:20 10° SSW 00:46:51 20° SSE 00:50:19 10° ESE night (unlit)
14 Jun - 02:24:20 10° SW 02:28:59 79° SE 02:33:31 10° NE night (unlit)
14 Jun - 04:07:32 10° W 04:10:01 15° NW 04:12:29 10° NNW night (unlit)
14 Jun - 18:09:28 10° NNW 18:13:38 32° NE 18:17:51 10° ESE visible
14 Jun - 19:50:37 10° WNW 19:55:06 43° SSW 19:59:38 10° SE visible
14 Jun - 21:34:45 10° SW 21:37:38 16° SSW 21:40:31 10° SSE night (unlit)
14 Jun - 23:18:19 10° SSW 23:20:46 14° S 23:23:12 10° SE night (unlit)
15 Jun - 00:59:21 10° SW 01:03:31 31° SSE 01:07:36 10° E night (unlit)
15 Jun - 02:40:44 10° WSW 02:45:13 50° NW 02:49:35 10° NNE night (unlit)
15 Jun - 18:25:07 10° NW 18:29:47 68° NE 18:34:30 10° SE visible
15 Jun - 20:07:40 10° W 20:11:40 26° SSW 20:15:40 10° SSE visible
15 Jun - 21:52:13 10° SW 21:54:31 13° S 21:56:50 10° SSE night (unlit)
15 Jun - 23:34:31 10° SSW 23:37:38 17° SSE 23:40:43 10° ESE night (unlit)
16 Jun - 01:15:26 10° SW 01:20:01 53° SE 01:24:29 10° ENE night (unlit)
16 Jun - 02:57:39 10° WSW 03:01:17 23° NW 03:04:53 10° N night (unlit)
16 Jun - 17:01:22 10° N 17:04:51 21° NE 17:08:22 10° E daylight
16 Jun - 18:41:25 10° WNW 18:46:05 61° SW 18:50:47 10° SE visible
16 Jun - 20:25:04 10° WSW 20:28:23 18° SSW 20:31:43 10° SSE visible
16 Jun - 22:09:13 10° SSW 22:11:28 13° S 22:13:42 10° SSE night (unlit)
16 Jun - 23:50:33 10° SSW 23:54:23 24° SSE 23:58:09 10° ESE night (unlit)
17 Jun - 01:31:41 10° SW 01:36:21 78° NW 01:40:53 10° NE night (unlit)
17 Jun - 03:16:40 10° WNW 03:17:14 10° NW 03:17:48 10° NW night (unlit)
17 Jun - 17:16:28 10° NNW 17:20:55 44° NE 17:25:24 10° ESE daylight
17 Jun - 18:58:13 10° W 19:02:32 35° SSW 19:06:53 10° SE visible
17 Jun - 20:42:35 10° SW 20:45:14 15° S 20:47:51 10° SSE visible
17 Jun - 22:25:39 10° SSW 22:28:22 15° S 22:31:04 10° SE night (unlit)
18 Jun - 00:06:36 10° SW 00:10:59 38° SSE 00:15:17 10° E night (unlit)
18 Jun - 01:48:14 10° WSW 01:52:31 37° NW 01:56:41 10° NNE night (unlit)
18 Jun - 15:53:59 10° NNE 15:56:07 13° NE 15:58:14 10° E daylight
18 Jun - 17:32:24 10° NW 17:37:07 90° NNE 17:41:53 10° SE visible
18 Jun - 19:15:26 10° WSW 19:19:10 23° SSW 19:22:56 10° SSE visible
18 Jun - 20:59:54 10° SSW 21:02:08 13° S 21:04:22 10° SSE night (unlit)
18 Jun - 22:41:45 10° SSW 22:45:11 19° SSE 22:48:35 10° ESE night (unlit)
19 Jun - 00:22:43 10° SW 00:27:24 70° SE 00:31:59 10° ENE night (unlit)
19 Jun - 02:05:31 10° W 02:08:32 17° NW 02:11:30 10° N night (unlit)
19 Jun - 16:08:07 10° N 16:12:05 28° NE 16:16:06 10° ESE daylight
19 Jun - 17:48:56 10° WNW 17:53:29 48° SSW 17:58:05 10° SE visible
19 Jun - 19:32:54 10° SW 19:35:56 17° SSW 19:38:59 10° SSE visible
19 Jun - 21:16:39 10° SSW 21:19:04 14° S 21:21:28 10° SE night (unlit)
19 Jun - 22:57:46 10° SW 23:01:52 28° SSE 23:05:54 10° E night (unlit)
20 Jun - 00:39:04 10° WSW 00:43:40 58° NW 00:48:10 10° NE night (unlit)
20 Jun - 16:23:36 10° NW 16:28:12 59° NE 16:32:51 10° ESE daylight
20 Jun - 18:05:54 10° W 18:10:00 29° SSW 18:14:08 10° SE visible
20 Jun - 19:50:23 10° SW 19:52:49 14° S 19:55:15 10° SSE visible
20 Jun - 21:32:55 10° SSW 21:35:57 17° SSE 21:38:57 10° SE night (unlit)
20 Jun - 23:13:50 10° SW 23:18:25 48° SSE 23:22:53 10° ENE night (unlit)
21 Jun - 00:55:50 10° WSW 00:59:46 27° NW 01:03:38 10° N night (unlit)
21 Jun - 15:00:11 10° N 15:03:19 18° NE 15:06:28 10° E daylight
21 Jun - 16:39:48 10° WNW 16:44:28 70° SW 16:49:12 10° SE daylight
21 Jun - 18:23:14 10° WSW 18:26:41 20° SSW 18:30:10 10° SSE visible
21 Jun - 20:07:29 10° SSW 20:09:45 13° S 20:12:00 10° SSE visible
21 Jun - 21:48:58 10° SSW 21:52:43 22° SSE 21:56:25 10° ESE night (unlit)
21 Jun - 23:30:03 10° SW 23:34:46 89° NW 23:39:23 10° NE night (unlit)
22 Jun - 01:13:49 10° WNW 01:15:44 12° NW 01:17:39 10° NNW night (unlit)
22 Jun - 15:15:03 10° NNW 15:19:20 38° NE 15:23:42 10° ESE daylight
22 Jun - 16:56:31 10° W 17:00:53 38° SSW 17:05:20 10° SE daylight
22 Jun - 18:40:44 10° SW 18:43:30 15° SSW 18:46:17 10° SSE visible
22 Jun - 20:24:01 10° SSW 20:26:39 15° S 20:29:18 10° SE visible
22 Jun - 22:05:00 10° SW 22:09:20 35° SSE 22:13:36 10° E night (unlit)
22 Jun - 23:46:31 10° WSW 23:50:58 43° NW 23:55:19 10° NNE night (unlit)
